THOR ABLESTAR DEB, 461

Orbit data source: Space-Track

THOR ABLESTAR DEB, 461 is space debris in LEO originally from a launch on Thu, 29 Jun 1961 UTC launched from the Air Force Eastern Test Range (AFETR). Debris objects in space refer to the collection of defunct objects orbiting the Earth. Examples of debris include non-operational satellites, rocket bodies, and fragments generated from explosions, collisions, or faulty payload assembly.

Loading next visibility...
Identifier
461, 1961-015EX
Orbit
LEO
Country
Flag of USUS
Related business
Manufacturer
Unknown
Mission
Spacecraft
Bus & Motor
Unknown
Mass
Unknown
Launch date (UTC)
1961-06-29 (64 years ago)
Launch vehicle
Unknown
Launch site
Air Force Eastern Test Range (AFETR)
Object type
Payload
Rocket body
Debris
Shape & HBR
Unknown shape, 0.1 m
Radar Cross Section
Medium (>0.1 m² and <1 m²)

Expand to show TLE details & history
Last TLE update: 9 hours ago

TLE from 9 hours ago
0 THOR ABLESTAR DEB
1   461U 61015EX  25298.50555910  .00023771  00000-0  20509-2 0  9998
2   461  67.4983  36.2388 0025780 200.2625 159.7493 14.96986080350545
Epoch: 2025-10-25T12:08Z
TLE epoch observation values (Epoch: 2025-10-25T12:08:00.306Z)
Latitude
-0.00005°
Longitude
-179.89763°
Altitude
595.278 km
Speed
7.554 km/s
True Right ascension
02h 24m 57s
True Declination
0° 00' 00"
Sunlit
Object was in full shadow at epoch
Visualization orbit readout
Latitude
Unknown
Longitude
Unknown
Altitude
Unknown
Speed
Unknown
Apparent Right ascension
Unknown
Apparent Declination
Unknown
Sunlit
N/A
Visualization observer readout
Local Sidereal Time
16:08:54
Azimuth
Unknown
Elevation
Unknown
Doppler factor
Unknown
Orbital elements
Apogee altitude
592.368 km
Perigee altitude
556.521 km
Semi-major axis
6,952.581 km
Eccentricity
0.00258
Inclination
67.4983°
RAAN
36.2388°
Arg. of periapsis
200.2625°
True anomaly
159.85124°
Mean anomaly
159.7493°
Eccentric anomaly
159.8003°
Mean motion
3.7439 °/min
Orbital period
96.16 mins
BSTAR
0.0020509
Loading maneuver chart data...
Computing Atmospheric mass density...

Documentation

Showing up to 5 results
|